OBJECT C, 67676

Orbit data source: Space-Track

You're viewing an Uncataloged Satellite

Recently launched and/or uncataloged satellites may have evolving metadata. Metadata may include but not limited to: Owner, Maufacturer, Bus, Motor, and Mission.

OBJECT C, 67676 is a satellite owned by VVKO VKS (CIS) in SSO that was launched on Thu, 05 Feb 2026 UTC via a SOYUZ-2-1B launch vehicle from the Plesetsk Missile And Space Complex (PKMTR). Unknown objects in Earth's orbit typically refer to objects detected orbiting the Earth but have not yet been identified or cataloged. These objects could be anything from previously untracked satellites, spent rocket stages, debris from satellite collisions, or even natural meteoroids temporarily captured by Earth's gravity.

Loading next visibility...
Identifier
67676, 2026-023C
Orbit
SSO
Country
Flag of CISCIS
Related business
Manufacturer
Unknown (RU)
Mission
Spacecraft
Bus & Motor
UNK, Unknown motor
Mass
~500 kg wet, ~500 kg dry
Launch date (UTC)
2026-02-05 (2 months ago)
Launch vehicle
SOYUZ-2-1B
Launch site
Plesetsk Missile And Space Complex (PKMTR)
Object type
Unknown
Shape & HBR
Unknown shape, 1.1 m
Radar Cross Section
RCS unknown

Expand to show TLE details & history
Last TLE update: 11 hours ago

TLE from 11 hours ago
0 OBJECT C
1 67676U 26023C   26103.92367296  .00006209  00000-0  25809-3 0  9995
2 67676  96.6339 172.8446 0018297   4.0787 356.0598 15.23941393 10383
Epoch: 2026-04-13T22:10Z
TLE epoch observation values (Epoch: 2026-04-13T22:10:05.343Z)
Latitude
-0.00004°
Longitude
-1.78496°
Altitude
484.536 km
Speed
7.63 km/s
True Right ascension
11h 31m 22s
True Declination
0° 00' 00"
Sunlit
Object was in full shadow at epoch
Visualization orbit readout
Latitude
Unknown
Longitude
Unknown
Altitude
Unknown
Speed
Unknown
Apparent Right ascension
Unknown
Apparent Declination
Unknown
Sunlit
N/A
Visualization observer readout
Local Sidereal Time
15:40:30
Azimuth
Unknown
Elevation
Unknown
Doppler factor
Unknown
Orbital elements
Apogee altitude
503.463 km
Perigee altitude
478.327 km
Semi-major axis
6,869.032 km
Eccentricity
0.00183
Inclination
96.6339°
RAAN
172.8446°
Arg. of periapsis
4.0787°
True anomaly
356.04536°
Mean anomaly
356.0598°
Eccentric anomaly
356.05258°
Mean motion
3.81241 °/min
Orbital period
94.43 mins
BSTAR
0.00025809
Loading maneuver chart data...
Computing Atmospheric mass density...
Loading historical data...
Loading historical data...
Loading historical data...
Loading historical data...
Loading historical data...
Loading historical data...
Loading historical data...

Documentation

Showing up to 5 results
|